COSMOS 252 DEB *, 3690

Orbit data source: Space-Track

COSMOS 252 DEB *, 3690 is space debris in LEO originally from a launch on Fri, 01 Nov 1968 UTC launched from the Tyuratam Missile And Space Complex (TTMTR). Debris objects in space refer to the collection of defunct objects orbiting the Earth. Examples of debris include non-operational satellites, rocket bodies, and fragments generated from explosions, collisions, or faulty payload assembly.

Loading next visibility...
Identifier
3690, 1968-097AH
Orbit
LEO
Country
Flag of CISCIS
Related business
Manufacturer
Unknown
Mission
Spacecraft
Bus & Motor
Unknown
Mass
Unknown
Launch date (UTC)
1968-11-01 (57 years ago)
Launch vehicle
Unknown
Launch site
Tyuratam Missile And Space Complex (TTMTR)
Object type
Payload
Rocket body
Debris
Shape & HBR
Unknown shape, 0.1 m
Radar Cross Section
Small (<0.1 m²)

Expand to show TLE details & history
Last TLE update: 22 hours ago

TLE from 22 hours ago
0 COSMOS 252 DEB *
1  3690U 68097AH  26034.24435839  .00000022  00000-0  10677-3 0  9999
2  3690  62.3508 354.5766 0766494 229.5747 123.5927 12.90559774654881
Epoch: 2026-02-03T05:51Z
TLE epoch observation values (Epoch: 2026-02-03T05:51:52.564Z)
Latitude
-0.00004°
Longitude
133.17949°
Altitude
1,655.877 km
Speed
6.881 km/s
True Right ascension
23h 38m 18s
True Declination
0° 00' 00"
Sunlit
Object was in daylight at epoch
Visualization orbit readout
Latitude
Unknown
Longitude
Unknown
Altitude
Unknown
Speed
Unknown
Apparent Right ascension
Unknown
Apparent Declination
Unknown
Sunlit
N/A
Visualization observer readout
Local Sidereal Time
05:57:13
Azimuth
Unknown
Elevation
Unknown
Doppler factor
Unknown
Orbital elements
Apogee altitude
1,886.676 km
Perigee altitude
709.89 km
Semi-major axis
7,676.42 km
Eccentricity
0.07665
Inclination
62.3508°
RAAN
354.5766°
Arg. of periapsis
229.5747°
True anomaly
130.52335°
Mean anomaly
123.5927°
Eccentric anomaly
127.09564°
Mean motion
3.22705 °/min
Orbital period
111.56 mins
BSTAR
0.00010677
Loading maneuver chart data...
Computing Atmospheric mass density...

Documentation

Showing up to 5 results
|